This demonstration page uses our WeatherBlox Daily Observations layout. Learn more.

Left ArrowRight Arrow

47.50024, -111.30081

Hourly Observations for April 14, 2016

Temp ( °F °C ) Dew Point ( °F °C ) Humidity (%) Winds ( mph kmh ) Pressure ( in mb ) Visibility ( mi km ) Precip ( " mm )
12:53 am 00:53 Mostly Clear 36 2.2 29 -1.7 76 76 SSW 8 13 29.85 1011 10 16 0.00 0.00
1:53 am 01:53 Mostly Cloudy 40 4.4 31 -0.6 70 70 SSE 7 11 29.81 1010 10 16 0.00 0.00
2:53 am 02:53 Cloudy 41 5 32 0 70 70 SW 7 11 29.79 1009 10 16 0.00 0.00
3:53 am 03:53 Cloudy 38 3.3 32 0 79 79 undefined N/A 29.82 1010 10 16 0.00 0.00
4:53 am 04:53 Cloudy 40 4.4 32 0 73 73 ESE 8 13 29.78 1008 10 16 0.00 0.00
5:53 am 05:53 Cloudy with Light Rain 42 5.6 36 2.2 79 79 SSE 8 13 29.75 1008 10 16 0.01 0.25
6:53 am 06:53 Partly Cloudy 41 5 36 2.2 82 82 ESE 6 9 29.74 1007 10 16 0.00 0.03
7:53 am 07:53 Cloudy 43 6.1 37 2.8 80 80 E 5 7 29.72 1007 10 16 0.00 0.00
8:53 am 08:53 Cloudy 45 7.2 36 2.2 71 71 N 5 7 29.72 1007 10 16 0.00 0.00
9:53 am 09:53 Cloudy with Light Rain 43 6.1 38 3.3 82 82 Calm 29.74 1007 5 8 0.00 0.03
10:53 am 10:53 Cloudy with Light Rain 42 5.6 38 3.3 85 85 NNW 3 6 29.74 1007 6 10 0.04 1.02
11:27 am 11:27 Cloudy with Light Rain 42 5.6 41 5 96 96 E 5 7 29.71 1006 7 11 0.04 1.02
11:53 am 11:53 Cloudy with Light Rain 42 5.6 40 4.4 92 92 E 8 13 29.75 1007 6 10 0.05 1.27
12:53 pm 12:53 Cloudy with Light Rain 42 5.6 40 4.4 92 92 E 6 9 29.73 1007 10 16 0.05 1.27
1:07 pm 13:07 Cloudy with Light Rain 42 5.6 40 4.4 92 92 S 3 6 29.71 1006 10 16 0.00 0.03
1:24 pm 13:24 Cloudy with Light Rain 43 6 39 4 87 87 S 5 7 29.71 1006 7 11 0.00 0.00
1:36 pm 13:36 Cloudy with Rain 42 5.6 40 4.4 92 92 SE 3 6 29.71 1006 6 10 0.03 0.76
1:53 pm 13:53 Cloudy with Light Rain 43 6.1 40 4.4 89 89 Calm 29.71 1006 8 13 0.05 1.27
2:05 pm 14:05 Cloudy with Light Rain 43 6.1 39 3.9 86 86 SE 5 7 29.71 1006 8 13 0.01 0.25
2:53 pm 14:53 Cloudy with Light Rain 43 6.1 39 3.9 86 86 E 5 7 29.71 1006 9 14 0.08 2.03
3:12 pm 15:12 Cloudy with Light Rain 43 6 37 3 81 81 E 3 6 29.71 1006 10 16 0.00 0.00
3:53 pm 15:53 Cloudy with Light Rain 42 5.6 40 4.4 92 92 NE 7 11 29.72 1007 6 10 0.03 0.76
4:00 pm 16:00 Cloudy with Light Rain 43 6 39 4 87 87 NNE 8 13 29.71 1006 6 10 0.00 0.00
4:53 pm 16:53 Cloudy with Light Rain 42 5.6 39 3.9 89 89 NNE 7 11 29.72 1006 7 11 0.04 1.02
5:00 pm 17:00 Cloudy with Light Rain 41 5 39 4 93 93 NNE 9 15 29.71 1006 6 10 0.00 0.00
5:13 pm 17:13 Cloudy with Light Rain 41 5 39 3.9 93 93 N 9 15 29.71 1006 7 11 0.01 0.25
5:53 pm 17:53 Cloudy with Light Rain 41 5 38 3.3 89 89 N 6 9 29.74 1007 7 11 0.03 0.76
6:15 pm 18:15 Cloudy with Light Rain 40 4.4 38 3.3 93 93 N 8 13 29.74 1007 6 10 0.02 0.51
6:53 pm 18:53 Cloudy with Light Rain 40 4.4 37 2.8 89 89 N 9 15 29.73 1007 10 16 0.04 1.02
7:53 pm 19:53 Cloudy with Light Rain 40 4.4 38 3.3 93 93 NW 6 9 29.73 1007 10 16 0.01 0.25
7:59 pm 19:59 Cloudy with Light Rain 40 4.4 37 2.8 89 89 NW 7 11 29.74 1007 10 16 0.00 0.03
8:53 pm 20:53 Cloudy with Light Rain 40 4.4 37 2.8 89 89 WNW 7 11 29.75 1007 10 16 0.01 0.25
9:22 pm 21:22 Cloudy with Light Rain 39 4 37 3 93 93 NW 10 17 29.74 1007 10 16 0.00 0.00
9:53 pm 21:53 Cloudy with Light Rain 38 3.3 36 2.2 93 93 WNW 9 15 29.76 1008 10 16 0.01 0.25
10:11 pm 22:11 Cloudy with Light Rain 38 3.3 36 2.2 93 93 WNW 14 22 29.77 1008 10 16 0.01 0.25
10:24 pm 22:24 Cloudy with Light Rain 37 3 36 2 93 93 WNW 13 20 29.77 1008 10 16 0.00 0.00
10:32 pm 22:32 Cloudy with Light Rain 37 3 36 2 93 93 WNW 14 22 29.77 1008 9 14 0.00 0.00
10:53 pm 22:53 Cloudy with Light Rain 37 2.8 35 1.7 93 93 WNW 15 24 29.78 1008 7 11 0.03 0.76
11:17 pm 23:17 Cloudy with Light Rain 36 2.2 34 1.1 93 93 WNW 17 28 29.77 1008 7 11 0.04 1.02
11:27 pm 23:27 Cloudy with Rain 35 1.7 33 0.6 93 93 WNW 16 26 29.77 1008 7 11 0.05 1.27
11:38 pm 23:38 Cloudy with Rain 36 2 34 1 93 93 WNW 13 20 29.77 1008 6 10 0.00 0.00
11:48 pm 23:48 Cloudy with Rain 36 2 34 1 93 93 W 13 20 29.77 1008 7 11 0.00 0.00
11:53 pm 23:53 Cloudy with Rain 35 1.7 33 0.6 93 93 W 13 20 29.79 1009 7 11 0.09 2.29

Powered by AerisWeather